Вернуться в каталог

STARLINK-35681

АктивенСвязьVLEO
NORAD 66395·PAYLOAD·🇺🇸 United States

Запущен Nov 8, 2025 с Cape Canaveral Space Force Station

Loading…

Ближайшие Пролёты (ближайшие 24 часа)

TLE

СвежийSource: CelesTrak SupGP

Эпоха: Sep 15, 2026, 03:06 UTC

1 66395C 25257R   26258.12965278 -.00020364  00000+0 -60173-3 0  2587
2 66395  53.1584  54.5533 0001047  88.8770 263.5238 15.34397828    12

Отслеживайте STARLINK-35681 в реальном времени с AllMySat

Download on the App Store